TimeEST,TemperatureF,Dew PointF,Humidity,Sea Level PressureIn,VisibilityMPH,Wind Direction,Wind SpeedMPH,Gust SpeedMPH,PrecipitationIn,Events,Conditions,WindDirDegrees,DateUTC
12:15 AM,39.2,27.3,62,30.00,10.0,WNW,17.3,20.7,N/A,,Overcast,290,2013-02-16 05:15:00
12:35 AM,38.8,26.8,62,30.01,10.0,WNW,12.7,-,N/A,,Overcast,290,2013-02-16 05:35:00
12:55 AM,38.1,25.5,61,30.01,10.0,WNW,11.5,16.1,N/A,,Overcast,300,2013-02-16 05:55:00
1:15 AM,36.7,23.9,60,30.01,10.0,WNW,10.4,-,N/A,,Mostly Cloudy,290,2013-02-16 06:15:00
1:35 AM,35.4,23.4,62,30.00,10.0,WNW,8.1,-,N/A,,Mostly Cloudy,300,2013-02-16 06:35:00
1:55 AM,35.4,22.8,60,29.99,10.0,West,9.2,-,N/A,,Scattered Clouds,280,2013-02-16 06:55:00
2:15 AM,34.3,22.8,63,29.99,10.0,WNW,9.2,-,N/A,,Scattered Clouds,290,2013-02-16 07:15:00
2:35 AM,34.5,22.8,62,29.99,10.0,West,8.1,-,N/A,,Scattered Clouds,260,2013-02-16 07:35:00
2:55 AM,34.3,23.2,64,29.99,10.0,WNW,3.5,-,N/A,,Scattered Clouds,290,2013-02-16 07:55:00
3:15 AM,35.1,24.3,65,29.98,10.0,West,4.6,-,N/A,,Mostly Cloudy,270,2013-02-16 08:15:00
3:35 AM,36.0,24.4,63,29.98,10.0,WNW,8.1,-,N/A,,Overcast,290,2013-02-16 08:35:00
3:55 AM,37.0,24.6,61,29.98,10.0,NNE,3.5,-,N/A,,Overcast,20,2013-02-16 08:55:00
4:15 AM,36.5,25.3,64,29.98,10.0,North,4.6,-,N/A,,Overcast,360,2013-02-16 09:15:00
4:35 AM,36.0,26.1,67,29.98,10.0,NE,3.5,-,N/A,,Overcast,50,2013-02-16 09:35:00
4:55 AM,35.6,26.4,69,29.98,10.0,Calm,Calm,-,N/A,,Overcast,0,2013-02-16 09:55:00
5:15 AM,35.6,25.9,68,29.98,5.0,NW,5.8,-,N/A,Snow,Light Snow,310,2013-02-16 10:15:00
5:35 AM,33.8,27.1,77,29.97,10.0,WSW,3.5,-,N/A,,Mostly Cloudy,240,2013-02-16 10:35:00
6:15 AM,33.6,27.1,77,29.98,10.0,Calm,Calm,-,N/A,,Mostly Cloudy,0,2013-02-16 11:15:00
6:35 AM,33.8,27.5,78,29.98,10.0,WNW,5.8,-,N/A,,Overcast,300,2013-02-16 11:35:00
6:55 AM,34.0,27.1,76,29.98,10.0,WNW,8.1,-,N/A,Snow,Light Snow,290,2013-02-16 11:55:00
7:15 AM,33.8,26.2,74,29.98,10.0,NW,5.8,-,N/A,,Overcast,310,2013-02-16 12:15:00
7:35 AM,34.3,24.1,66,29.98,10.0,Calm,Calm,-,N/A,,Overcast,0,2013-02-16 12:35:00
7:55 AM,34.0,23.7,66,29.99,10.0,NNW,4.6,-,N/A,,Overcast,330,2013-02-16 12:55:00
8:15 AM,33.8,23.0,65,29.99,10.0,NNW,4.6,-,N/A,,Scattered Clouds,330,2013-02-16 13:15:00
8:35 AM,34.0,22.5,63,29.98,10.0,NW,8.1,-,N/A,,Clear,320,2013-02-16 13:35:00
8:55 AM,34.3,21.9,60,29.98,10.0,NNW,3.5,-,N/A,,Clear,340,2013-02-16 13:55:00
9:15 AM,34.9,22.3,60,29.97,10.0,NW,5.8,-,N/A,,Clear,320,2013-02-16 14:15:00
9:35 AM,35.6,21.7,57,29.97,10.0,NNW,3.5,-,N/A,,Clear,340,2013-02-16 14:35:00
9:55 AM,35.4,20.8,55,29.97,10.0,WNW,9.2,-,N/A,,Mostly Cloudy,300,2013-02-16 14:55:00
10:15 AM,35.6,20.1,53,29.97,10.0,NNW,4.6,-,N/A,,Scattered Clouds,330,2013-02-16 15:15:00
10:35 AM,35.8,20.1,53,29.97,10.0,North,3.5,-,N/A,,Scattered Clouds,350,2013-02-16 15:35:00
1:15 PM,36.1,16.5,45,29.92,10.0,NW,4.6,-,N/A,,Overcast,310,2013-02-16 18:15:00
1:35 PM,36.1,17.4,47,29.91,10.0,WNW,8.1,-,N/A,,Overcast,300,2013-02-16 18:35:00
1:55 PM,36.1,16.7,45,29.91,10.0,WNW,10.4,-,N/A,,Overcast,290,2013-02-16 18:55:00
2:15 PM,36.7,16.5,44,29.90,10.0,West,9.2,-,N/A,,Overcast,270,2013-02-16 19:15:00
2:35 PM,36.5,16.0,43,29.90,10.0,WNW,10.4,-,N/A,,Overcast,300,2013-02-16 19:35:00
2:55 PM,36.3,16.0,44,29.89,10.0,NW,11.5,-,N/A,,Overcast,310,2013-02-16 19:55:00
3:15 PM,35.6,14.7,42,29.90,10.0,NW,10.4,-,N/A,,Overcast,310,2013-02-16 20:15:00
3:35 PM,35.4,14.9,43,29.91,10.0,NW,11.5,17.3,N/A,,Mostly Cloudy,320,2013-02-16 20:35:00
3:55 PM,34.9,14.4,43,29.91,10.0,NW,10.4,-,N/A,,Mostly Cloudy,310,2013-02-16 20:55:00
4:15 PM,34.9,14.5,43,29.90,10.0,NW,8.1,-,N/A,,Overcast,320,2013-02-16 21:15:00
4:35 PM,34.3,15.1,45,29.92,10.0,WNW,8.1,-,N/A,,Overcast,300,2013-02-16 21:35:00
4:55 PM,33.6,13.8,44,29.91,10.0,NW,16.1,-,N/A,,Overcast,310,2013-02-16 21:55:00
5:15 PM,33.1,14.4,46,29.92,10.0,NW,6.9,-,N/A,,Overcast,310,2013-02-16 22:15:00
5:35 PM,32.0,15.4,51,29.92,10.0,NNW,8.1,-,N/A,,Mostly Cloudy,340,2013-02-16 22:35:00
5:55 PM,31.3,16.0,53,29.92,10.0,NNW,9.2,-,N/A,,Mostly Cloudy,340,2013-02-16 22:55:00
6:15 PM,30.9,15.3,52,29.93,10.0,NW,8.1,-,N/A,,Overcast,320,2013-02-16 23:15:00
6:35 PM,30.4,14.5,52,29.93,10.0,NNW,6.9,-,N/A,,Scattered Clouds,330,2013-02-16 23:35:00
6:55 PM,30.0,14.5,53,29.93,10.0,North,5.8,-,N/A,,Clear,350,2013-02-16 23:55:00
7:15 PM,30.2,14.5,52,29.93,10.0,NW,10.4,-,N/A,,Clear,320,2013-02-17 00:15:00
7:35 PM,30.4,14.5,52,29.93,10.0,NW,6.9,-,N/A,,Scattered Clouds,310,2013-02-17 00:35:00
7:55 PM,30.7,15.6,54,29.93,10.0,NW,4.6,-,N/A,,Mostly Cloudy,320,2013-02-17 00:55:00
8:15 PM,31.3,15.8,53,29.93,10.0,NNW,6.9,-,N/A,,Mostly Cloudy,330,2013-02-17 01:15:00
8:35 PM,31.5,16.7,54,29.92,10.0,NW,6.9,-,N/A,,Overcast,310,2013-02-17 01:35:00
8:55 PM,30.7,18.9,61,29.92,7.0,NNE,6.9,-,N/A,Snow,Light Snow,30,2013-02-17 01:55:00
9:15 PM,30.2,21.4,70,29.93,10.0,NNW,4.6,-,N/A,,Overcast,340,2013-02-17 02:15:00
9:35 PM,29.5,21.2,71,29.92,10.0,NW,4.6,-,N/A,,Mostly Cloudy,320,2013-02-17 02:35:00
9:55 PM,28.8,20.3,71,29.92,10.0,Calm,Calm,-,N/A,,Clear,0,2013-02-17 02:55:00
10:15 PM,27.5,19.0,71,29.92,10.0,NW,3.5,-,N/A,,Clear,310,2013-02-17 03:15:00
10:35 PM,26.6,17.1,67,29.92,10.0,NW,3.5,-,N/A,,Clear,310,2013-02-17 03:35:00
10:55 PM,25.9,14.2,61,29.92,10.0,NW,6.9,-,N/A,,Clear,310,2013-02-17 03:55:00
11:15 PM,25.3,14.0,62,29.92,10.0,NW,5.8,-,N/A,,Clear,320,2013-02-17 04:15:00
11:35 PM,27.0,13.5,57,29.91,10.0,NNW,5.8,-,N/A,,Scattered Clouds,330,2013-02-17 04:35:00
11:55 PM,26.8,13.5,57,29.91,10.0,North,4.6,-,N/A,,Scattered Clouds,350,2013-02-17 04:55:00